• Join FlightAware (Why Join?)
  • Login
  • US Flag 
12:07PM EST


 

Airport Tracker/Info


-or-


 

Live Flight TrackerFlight Track Log ✈ SWA4963 ✈ 10-May-2013 ✈ KBWI - KMHT

Flight Track Log - Related Links

Times and Time Zones

All times are in EDT time to prevent confusion due to time zone crossing. See the SWA4963 flight status page for this flight to view local times or setup timezone preferences in your user account.

Time Position Orientation Groundspeed Altitude Reporting Facility
EDT Latitude Longitude Course Direction KTS MPH feet Rate Location/Type
08:43PM 39.1333 -76.6333 122° Southeast 179 206 2,200  Level Potomac TRACON
08:44PM 39.0744 -76.5114 122° Southeast 244 281 6,700 2,764 Climbing Washington Center
08:45PM 39.0942 -76.4047 77° East 251 289 9,800 2,824 Climbing Washington Center
08:46PM 39.1156 -76.2844 77° East 292 336 12,300 2,331 Climbing Washington Center
08:47PM 39.1414 -76.1644 74° East 346 398 14,500 2,727 Climbing Washington Center
08:48PM 39.1647 -76.0306 77° East 373 429 17,800 3,049 Climbing Washington Center
08:50PM 39.1944 -75.8917 75° East 391 450 20,700 2,644 Climbing Washington Center
08:50PM 39.2694 -75.7792 49° Northeast 400 460 23,000 2,593 Climbing Washington Center
08:51PM 39.3675 -75.6800 38° Northeast 406 467 25,800 2,350 Climbing Washington Center
08:52PM 39.4678 -75.5942 33° Northeast 418 481 27,700 1,815 Climbing Washington Center
08:53PM 39.5739 -75.5028 34° Northeast 436 502 29,400 1,870 Climbing Washington Center
08:55PM 39.7536 -75.3478 34° Northeast 457 526 32,500 2,053 Climbing New York Center
08:56PM 39.8636 -75.2550 33° Northeast 463 533 34,600 1,932 Climbing New York Center
08:57PM 39.9733 -75.1617 33° Northeast 463 533 36,300 1,140 Climbing New York Center
08:58PM 40.0811 -75.0656 34° Northeast 463 533 36,900 350 Climbing New York Center
08:59PM 40.1867 -74.9714 34° Northeast 458 527 37,000 50 Climbing New York Center
09:00PM 40.2958 -74.8908 29° Northeast 453 521 37,000  Level New York Center
09:01PM 40.4144 -74.8408 18° North 442 509 37,000  Level New York Center
09:02PM 40.5306 -74.7931 17° North 442 509 37,000  Level New York Center
09:03PM 40.6469 -74.7369 20° North 436 502 37,000  Level New York Center
09:05PM 40.8636 -74.6439 18° North 433 498 37,000  Level Boston Center
09:06PM 40.9814 -74.5931 18° North 433 498 37,000  Level Boston Center
09:07PM 41.0992 -74.5417 18° North 430 495 37,000  Level Boston Center
09:08PM 41.2167 -74.4906 18° North 435 501 37,000  Level Boston Center
09:09PM 41.3469 -74.4364 17° North 440 506 37,000  Level Boston Center
09:10PM 41.4519 -74.3872 19° North 447 514 37,000  Level Boston Center
09:11PM 41.5864 -74.3303 18° North 447 514 37,000 -300 Level Boston Center
09:12PM 41.7039 -74.2781 18° North 447 514 36,400 -750 Descending Boston Center
09:13PM 41.8172 -74.2283 18° North 440 506 35,500 -1,500 Descending Boston Center
09:14PM 41.9347 -74.1789 17° North 440 506 33,400 -1,250 Descending Boston Center
09:15PM 42.0506 -74.1092 24° Northeast 440 506 33,000 -750 Descending Boston Center
09:16PM 42.1192 -73.9628 58° Northeast 428 493 31,900 -1,600 Descending Boston Center
09:17PM 42.1817 -73.8131 61° Northeast 439 505 29,800 -1,700 Descending Boston Center
09:18PM 42.2439 -73.6572 62° Northeast 454 522 28,500 -1,400 Descending Boston Center
09:19PM 42.3078 -73.5042 61° Northeast 460 529 27,000 -1,450 Descending Boston Center
09:20PM 42.3653 -73.3675 60° Northeast 447 514 25,600 -1,100 Descending Boston Center
09:21PM 42.4164 -73.2303 63° Northeast 441 507 24,800 -900 Descending Boston Center
09:22PM 42.4778 -73.0875 60° Northeast 436 502 23,800 -1,000 Descending Boston Center
09:23PM 42.5347 -72.9444 62° Northeast 430 495 22,800 -1,400 Descending Boston Center
09:24PM 42.5917 -72.7983 62° Northeast 430 495 21,000 -1,950 Descending Boston Center
09:25PM 42.6461 -72.6686 60° Northeast 415 478 18,900 -2,100 Descending Boston Center
09:26PM 42.7006 -72.5333 61° Northeast 403 464 16,800 -2,050 Descending Boston Center
09:27PM 42.7506 -72.4061 62° Northeast 396 456 14,800 -2,150 Descending Boston Center
09:28PM 42.7961 -72.2619 67° East 381 438 12,500 -2,050 Descending Boston Center
09:29PM 42.8044 -72.1372 85° East 368 423 10,700 -1,350 Descending Boston Center
09:30PM 42.8372 -72.0097 71° East 331 381 9,800 -1,000 Descending Boston Center
09:31PM 42.8786 -71.9244 56° Northeast 301 346 8,700 -1,300 Descending Boston Center
09:32PM 42.9303 -71.8275 54° Northeast 285 328 7,200 -1,400 Descending Boston Center
09:33PM 42.9714 -71.7478 55° Northeast 285 328 5,900 -1,500 Descending Boston Center
09:34PM 43.0125 -71.6478 61° Northeast 280 322 4,200 -1,500 Descending Boston Center
09:35PM 43.0286 -71.5625 75° East 262 302 2,900 -1,100 Descending Boston Center
09:36PM 43.0175 -71.4889 102° East 195 224 2,000 -800 Descending Boston Center
09:37PM 42.9881 -71.4722 158° South 132 152 1,300 -750 Descending Boston Center
09:38PM 42.9547 -71.4472 151° Southeast 126 145 500 -450 Descending Boston Center
09:39PM 42.9272 -71.4278 153° Southeast 126 145 400 4,250 Descending Boston Center
09:40PM 42.8958 -71.4056 153° Southeast 126 145 9,000 4,300 Climbing Boston Center
09:41PM 42.8644 -71.3864 156° South 126 145 9,000  Level Boston Center
09:42PM 42.8331 -71.3642 153° Southeast 126 145 9,000  Level Boston Center
09:44PM 42.9167 -71.4333 316° Northwest  Level FlightAware Approximate
09:51PM 42.9328 -71.4358 316° Northwest  Level Estimated
09:52PM 42.9328 -71.4358 316° Northwest  Level Estimated
09:53PM 42.9328 -71.4358 316° Northwest  Level Estimated
09:54PM 42.9328 -71.4358 316° Northwest  Level Estimated
09:55PM 42.9328 -71.4358 316° Northwest  Level Estimated
09:56PM 42.9328 -71.4358 316° Northwest  Level Estimated